Time,TemperatureF,DewpointF,PressureIn,WindDirection,WindDirectionDegrees,WindSpeedMPH,WindSpeedGustMPH,Humidity,HourlyPrecipIn,Conditions,Clouds,dailyrainin,SoftwareType,DateUTC
2013-03-19 00:05:00,30.7,14.2,30.01,North,355,1.0,2.0,50,0.00,CLR,,0.00,WeatherDisplay:10.37,2013-03-19 05:05:00,
2013-03-19 00:10:00,30.8,14.3,30.02,North,355,2.0,3.0,50,0.00,CLR,,0.00,WeatherDisplay:10.37,2013-03-19 05:10:00,
2013-03-19 00:15:00,31.0,14.0,30.01,North,355,2.0,4.0,49,0.00,CLR,,0.00,WeatherDisplay:10.37,2013-03-19 05:15:00,
2013-03-19 00:20:00,30.7,14.2,30.01,North,355,1.0,3.0,50,0.00,CLR,,0.00,WeatherDisplay:10.37,2013-03-19 05:20:00,
2013-03-19 00:25:00,30.3,14.3,30.02,North,355,3.0,5.0,51,0.00,CLR,,0.00,WeatherDisplay:10.37,2013-03-19 05:25:00,
2013-03-19 00:30:00,30.3,14.3,30.02,NNW,341,5.0,6.0,51,0.00,CLR,,0.00,WeatherDisplay:10.37,2013-03-19 05:30:00,
2013-03-19 00:40:00,30.3,14.8,30.02,NNW,333,3.0,6.0,52,0.00,CLR,,0.00,WeatherDisplay:10.37,2013-03-19 05:40:00,
2013-03-19 00:45:00,30.3,14.3,30.01,NNW,333,3.0,5.0,51,0.00,CLR,,0.00,WeatherDisplay:10.37,2013-03-19 05:45:00,
2013-03-19 00:50:00,29.9,14.4,30.02,NNW,333,3.0,5.0,52,0.00,CLR,,0.00,WeatherDisplay:10.37,2013-03-19 05:50:00,
2013-03-19 00:55:00,29.6,14.6,30.02,NNW,334,5.0,7.0,53,0.00,CLR,,0.00,WeatherDisplay:10.37,2013-03-19 05:55:00,
2013-03-19 01:00:00,30.1,14.6,30.02,NNW,339,6.0,8.0,52,0.00,CLR,,0.00,WeatherDisplay:10.37,2013-03-19 06:00:00,
2013-03-19 01:10:00,30.3,14.3,30.04,NNW,333,5.0,6.0,51,0.00,CLR,,0.00,WeatherDisplay:10.37,2013-03-19 06:10:00,
2013-03-19 01:15:00,30.3,14.3,30.04,NW,322,2.0,4.0,51,0.00,CLR,,0.00,WeatherDisplay:10.37,2013-03-19 06:15:00,
2013-03-19 01:20:00,30.3,14.3,30.04,NW,315,3.0,5.0,51,0.00,CLR,,0.00,WeatherDisplay:10.37,2013-03-19 06:20:00,
2013-03-19 01:25:00,30.5,14.0,30.04,NW,315,3.0,5.0,50,0.00,CLR,,0.00,WeatherDisplay:10.37,2013-03-19 06:25:00,
2013-03-19 01:30:00,30.6,14.2,30.04,NW,315,2.0,4.0,50,0.00,CLR,,0.00,WeatherDisplay:10.37,2013-03-19 06:30:00,
2013-03-19 01:35:00,30.8,13.4,30.04,NW,315,1.0,2.0,48,0.00,CLR,,0.00,WeatherDisplay:10.37,2013-03-19 06:35:00,
2013-03-19 01:40:00,30.9,14.0,30.04,NW,315,1.0,3.0,49,0.00,CLR,,0.00,WeatherDisplay:10.37,2013-03-19 06:40:00,
2013-03-19 01:45:00,30.9,13.9,30.04,NW,315,1.0,2.0,49,0.00,CLR,,0.00,WeatherDisplay:10.37,2013-03-19 06:45:00,
2013-03-19 01:50:00,30.7,14.2,30.03,NW,315,1.0,2.0,50,0.00,CLR,,0.00,WeatherDisplay:10.37,2013-03-19 06:50:00,
2013-03-19 01:55:00,30.4,13.5,30.03,NW,315,1.0,3.0,49,0.00,CLR,,0.00,WeatherDisplay:10.37,2013-03-19 06:55:00,
2013-03-19 02:00:00,29.5,14.0,30.03,NW,315,1.0,3.0,52,0.00,CLR,,0.00,WeatherDisplay:10.37,2013-03-19 07:00:00,
2013-03-19 02:10:00,29.1,14.1,30.03,WSW,251,2.0,4.0,53,0.00,CLR,,0.00,WeatherDisplay:10.37,2013-03-19 07:10:00,
2013-03-19 02:15:00,28.7,14.6,30.03,SW,221,2.0,3.0,55,0.00,CLR,,0.00,WeatherDisplay:10.37,2013-03-19 07:15:00,
2013-03-19 02:20:00,28.7,14.1,30.04,SW,221,3.0,5.0,54,0.00,CLR,,0.00,WeatherDisplay:10.37,2013-03-19 07:20:00,
2013-03-19 02:25:00,28.8,14.6,30.03,SW,221,2.0,5.0,55,0.00,CLR,,0.00,WeatherDisplay:10.37,2013-03-19 07:25:00,
2013-03-19 02:30:00,28.8,14.2,30.03,SW,221,3.0,6.0,54,0.00,CLR,,0.00,WeatherDisplay:10.37,2013-03-19 07:30:00,
2013-03-19 02:40:00,28.4,14.7,30.05,SW,222,2.0,4.0,56,0.00,CLR,,0.00,WeatherDisplay:10.37,2013-03-19 07:40:00,
2013-03-19 02:45:00,28.4,14.7,30.05,SW,222,1.0,4.0,56,0.00,CLR,,0.00,WeatherDisplay:10.37,2013-03-19 07:45:00,
2013-03-19 02:50:00,28.4,15.1,30.05,SW,222,1.0,4.0,57,0.00,CLR,,0.00,WeatherDisplay:10.37,2013-03-19 07:50:00,
2013-03-19 02:55:00,28.3,15.4,30.05,SW,222,1.0,3.0,58,0.00,CLR,,0.00,WeatherDisplay:10.37,2013-03-19 07:55:00,
2013-03-19 03:00:00,28.4,15.5,30.06,SW,222,1.0,3.0,58,0.00,CLR,,0.00,WeatherDisplay:10.37,2013-03-19 08:00:00,
2013-03-19 03:10:00,28.6,15.7,30.06,SW,222,2.0,3.0,58,0.00,CLR,,0.00,WeatherDisplay:10.37,2013-03-19 08:10:00,
2013-03-19 03:15:00,28.7,16.6,30.06,SW,222,1.0,3.0,60,0.00,CLR,,0.00,WeatherDisplay:10.37,2013-03-19 08:15:00,
2013-03-19 03:20:00,28.7,16.2,30.06,SW,222,0.0,1.0,59,0.00,CLR,,0.00,WeatherDisplay:10.37,2013-03-19 08:20:00,
2013-03-19 03:25:00,28.8,15.8,30.05,SW,222,1.0,3.0,58,0.00,CLR,,0.00,WeatherDisplay:10.37,2013-03-19 08:25:00,
2013-03-19 03:30:00,29.1,15.3,30.05,SW,222,2.0,4.0,56,0.00,CLR,,0.00,WeatherDisplay:10.37,2013-03-19 08:30:00,
2013-03-19 03:40:00,28.9,15.6,30.05,SW,223,2.0,4.0,57,0.00,CLR,,0.00,WeatherDisplay:10.37,2013-03-19 08:40:00,
2013-03-19 03:45:00,28.9,16.4,30.06,SW,223,2.0,4.0,59,0.00,CLR,,0.00,WeatherDisplay:10.37,2013-03-19 08:45:00,
2013-03-19 03:50:00,29.0,16.4,30.05,SW,223,1.0,3.0,59,0.00,CLR,,0.00,WeatherDisplay:10.37,2013-03-19 08:50:00,
2013-03-19 03:55:00,29.1,16.1,30.05,SW,223,0.0,2.0,58,0.00,CLR,,0.00,WeatherDisplay:10.37,2013-03-19 08:55:00,
2013-03-19 04:00:00,29.3,16.3,30.05,SW,223,0.0,2.0,58,0.00,CLR,,0.00,WeatherDisplay:10.37,2013-03-19 09:00:00,
2013-03-19 04:10:00,29.1,17.0,30.06,SW,223,2.0,4.0,60,0.00,OVC,,0.00,WeatherDisplay:10.37,2013-03-19 09:10:00,
2013-03-19 04:15:00,29.4,16.8,30.05,SW,223,0.0,3.0,59,0.00,OVC,,0.00,WeatherDisplay:10.37,2013-03-19 09:15:00,
2013-03-19 04:20:00,29.7,17.1,30.05,SW,223,1.0,3.0,59,0.00,OVC,,0.00,WeatherDisplay:10.37,2013-03-19 09:20:00,
2013-03-19 04:25:00,29.8,17.6,30.04,SW,223,1.0,3.0,60,0.00,OVC,,0.00,WeatherDisplay:10.37,2013-03-19 09:25:00,
2013-03-19 04:30:00,29.8,17.6,30.05,SW,223,2.0,4.0,60,0.00,OVC,,0.00,WeatherDisplay:10.37,2013-03-19 09:30:00,
2013-03-19 04:40:00,29.8,18.0,30.03,SW,223,2.0,4.0,61,0.00,OVC,,0.00,WeatherDisplay:10.37,2013-03-19 09:40:00,
2013-03-19 04:45:00,29.7,17.9,30.04,SW,223,0.0,3.0,61,0.00,OVC,,0.00,WeatherDisplay:10.37,2013-03-19 09:45:00,
2013-03-19 04:50:00,29.7,17.1,30.04,SW,223,1.0,3.0,59,0.00,OVC,,0.00,WeatherDisplay:10.37,2013-03-19 09:50:00,
2013-03-19 04:55:00,29.8,18.0,30.04,SW,223,0.0,2.0,61,0.00,OVC,,0.00,WeatherDisplay:10.37,2013-03-19 09:55:00,
2013-03-19 05:00:00,29.9,18.1,30.05,SW,223,1.0,3.0,61,0.00,OVC,,0.00,WeatherDisplay:10.37,2013-03-19 10:00:00,
2013-03-19 05:10:00,29.8,18.7,30.05,SW,223,0.0,2.0,63,0.00,OVC,,0.00,WeatherDisplay:10.37,2013-03-19 10:10:00,
2013-03-19 05:15:00,29.8,18.7,30.04,SW,223,0.0,2.0,63,0.00,OVC,,0.00,WeatherDisplay:10.37,2013-03-19 10:15:00,
2013-03-19 05:20:00,29.8,18.4,30.05,SW,223,0.0,2.0,62,0.00,OVC,,0.00,WeatherDisplay:10.37,2013-03-19 10:20:00,
2013-03-19 05:25:00,29.7,19.4,30.06,SW,223,2.0,4.0,65,0.00,OVC,,0.00,WeatherDisplay:10.37,2013-03-19 10:25:00,
2013-03-19 05:30:00,29.6,18.9,30.06,SW,223,0.0,3.0,64,0.00,OVC,,0.00,WeatherDisplay:10.37,2013-03-19 10:30:00,
2013-03-19 05:40:00,30.0,19.3,30.07,SW,223,1.0,3.0,64,0.00,OVC,,0.00,WeatherDisplay:10.37,2013-03-19 10:40:00,
2013-03-19 05:45:00,30.0,18.9,30.07,SW,223,1.0,2.0,63,0.00,OVC,,0.00,WeatherDisplay:10.37,2013-03-19 10:45:00,
2013-03-19 05:50:00,30.1,19.4,30.07,SW,223,0.0,1.0,64,0.00,OVC,,0.00,WeatherDisplay:10.37,2013-03-19 10:50:00,
2013-03-19 06:00:00,30.3,19.6,30.07,SW,223,2.0,3.0,64,0.00,OVC,,0.00,WeatherDisplay:10.37,2013-03-19 11:00:00,
2013-03-19 06:05:00,30.1,20.1,30.06,SW,223,2.0,4.0,66,0.00,OVC,,0.00,WeatherDisplay:10.37,2013-03-19 11:05:00,
2013-03-19 06:10:00,29.8,19.8,30.07,SW,223,3.0,4.0,66,0.00,OVC,,0.00,WeatherDisplay:10.37,2013-03-19 11:10:00,
2013-03-19 06:15:00,29.8,19.1,30.07,SW,223,2.0,4.0,64,0.00,OVC,,0.00,WeatherDisplay:10.37,2013-03-19 11:15:00,
2013-03-19 06:20:00,29.8,19.1,30.07,SW,223,0.0,2.0,64,0.00,OVC,,0.00,WeatherDisplay:10.37,2013-03-19 11:20:00,
2013-03-19 06:25:00,29.9,19.6,30.07,SW,223,1.0,2.0,65,0.00,OVC,,0.00,WeatherDisplay:10.37,2013-03-19 11:25:00,
2013-03-19 06:30:00,30.0,19.3,30.06,SW,223,2.0,4.0,64,0.00,OVC,,0.00,WeatherDisplay:10.37,2013-03-19 11:30:00,
2013-03-19 06:40:00,30.0,19.3,30.07,SW,223,3.0,5.0,64,0.00,OVC,,0.00,WeatherDisplay:10.37,2013-03-19 11:40:00,
2013-03-19 06:45:00,30.0,19.3,30.08,SW,223,3.0,4.0,64,0.00,OVC,,0.00,WeatherDisplay:10.37,2013-03-19 11:45:00,
2013-03-19 06:50:00,30.1,19.0,30.08,SW,223,3.0,5.0,63,0.00,OVC,,0.00,WeatherDisplay:10.37,2013-03-19 11:50:00,
2013-03-19 06:55:00,30.3,19.2,30.08,SW,223,1.0,4.0,63,0.00,OVC,,0.00,WeatherDisplay:10.37,2013-03-19 11:55:00,
2013-03-19 07:00:00,30.3,19.2,30.08,SW,223,2.0,4.0,63,0.00,OVC,,0.00,WeatherDisplay:10.37,2013-03-19 12:00:00,
2013-03-19 07:05:00,30.3,18.8,30.09,SW,223,0.0,3.0,62,0.00,OVC,,0.00,WeatherDisplay:10.37,2013-03-19 12:05:00,
2013-03-19 07:10:00,30.4,18.6,30.09,SW,223,2.0,4.0,61,0.00,OVC,,0.00,WeatherDisplay:10.37,2013-03-19 12:10:00,
2013-03-19 07:15:00,30.6,19.1,30.09,SW,223,3.0,4.0,62,0.00,OVC,,0.00,WeatherDisplay:10.37,2013-03-19 12:15:00,
2013-03-19 07:20:00,30.5,19.8,30.09,SW,223,3.0,4.0,64,0.00,OVC,,0.00,WeatherDisplay:10.37,2013-03-19 12:20:00,
2013-03-19 07:25:00,30.5,19.4,30.09,SW,223,3.0,5.0,63,0.00,OVC,,0.00,WeatherDisplay:10.37,2013-03-19 12:25:00,
2013-03-19 07:30:00,30.5,19.8,30.10,SW,223,0.0,4.0,64,0.00,OVC,,0.00,WeatherDisplay:10.37,2013-03-19 12:30:00,
2013-03-19 07:40:00,30.7,19.2,30.10,SW,223,2.0,5.0,62,0.00,OVC,,0.00,WeatherDisplay:10.37,2013-03-19 12:40:00,
2013-03-19 07:45:00,30.7,19.6,30.10,SW,223,3.0,4.0,63,0.00,OVC,,0.00,WeatherDisplay:10.37,2013-03-19 12:45:00,
2013-03-19 07:50:00,30.7,19.6,30.11,SW,223,1.0,4.0,63,0.00,OVC,,0.00,WeatherDisplay:10.37,2013-03-19 12:50:00,
2013-03-19 07:55:00,30.7,20.0,30.11,SW,223,1.0,3.0,64,0.00,OVC,,0.00,WeatherDisplay:10.37,2013-03-19 12:55:00,
2013-03-19 08:00:00,30.9,19.8,30.11,SW,223,1.0,3.0,63,0.00,OVC,,0.00,WeatherDisplay:10.37,2013-03-19 13:00:00,
2013-03-19 08:10:00,31.2,20.1,30.11,SW,223,1.0,2.0,63,0.00,OVC,,0.00,WeatherDisplay:10.37,2013-03-19 13:10:00,
2013-03-19 08:15:00,31.3,20.2,30.11,SW,223,0.0,1.0,63,0.00,OVC,,0.00,WeatherDisplay:10.37,2013-03-19 13:15:00,
2013-03-19 08:20:00,31.5,19.6,30.11,SW,223,2.0,3.0,61,0.00,OVC,,0.00,WeatherDisplay:10.37,2013-03-19 13:20:00,
2013-03-19 08:30:00,31.7,20.6,30.11,SW,223,2.0,3.0,63,0.00,OVC,,0.00,WeatherDisplay:10.37,2013-03-19 13:30:00,
2013-03-19 08:40:00,31.7,20.5,30.11,SW,223,2.0,4.0,63,0.00,OVC,,0.00,WeatherDisplay:10.37,2013-03-19 13:40:00,
2013-03-19 08:45:00,31.8,20.6,30.11,SW,223,1.0,3.0,63,0.00,OVC,,0.00,WeatherDisplay:10.37,2013-03-19 13:45:00,
2013-03-19 08:50:00,32.0,20.1,30.12,SW,223,2.0,4.0,61,0.00,OVC,,0.00,WeatherDisplay:10.37,2013-03-19 13:50:00,
2013-03-19 09:00:00,32.5,19.7,30.13,SW,223,0.0,1.0,59,0.00,OVC,,0.00,WeatherDisplay:10.37,2013-03-19 14:00:00,
2013-03-19 09:05:00,32.8,19.6,30.13,SW,223,0.0,1.0,58,0.00,OVC,,0.00,WeatherDisplay:10.37,2013-03-19 14:05:00,
2013-03-19 09:10:00,33.1,19.5,30.13,SW,223,2.0,3.0,57,0.00,OVC,,0.00,WeatherDisplay:10.37,2013-03-19 14:10:00,
2013-03-19 09:15:00,33.4,19.4,30.13,SW,222,2.0,4.0,56,0.00,OVC,,0.00,WeatherDisplay:10.37,2013-03-19 14:15:00,
2013-03-19 09:20:00,33.6,20.0,30.13,SW,222,0.0,3.0,57,0.00,OVC,,0.00,WeatherDisplay:10.37,2013-03-19 14:20:00,
2013-03-19 09:25:00,33.8,19.7,30.13,SW,222,0.0,2.0,56,0.00,OVC,,0.00,WeatherDisplay:10.37,2013-03-19 14:25:00,
2013-03-19 09:30:00,33.9,19.0,30.14,SW,222,1.0,3.0,54,0.00,OVC,,0.00,WeatherDisplay:10.37,2013-03-19 14:30:00,
2013-03-19 09:40:00,34.2,18.8,30.14,SW,222,1.0,4.0,53,0.00,OVC,,0.00,WeatherDisplay:10.37,2013-03-19 14:40:00,
2013-03-19 09:45:00,34.3,19.0,30.14,SW,222,0.0,1.0,53,0.00,OVC,,0.00,WeatherDisplay:10.37,2013-03-19 14:45:00,
2013-03-19 09:55:00,34.8,17.1,30.15,SW,222,2.0,3.0,48,0.00,OVC,,0.00,WeatherDisplay:10.37,2013-03-19 14:55:00,
2013-03-19 10:00:00,35.0,16.3,30.15,SW,222,0.0,2.0,46,0.00,OVC,,0.00,WeatherDisplay:10.37,2013-03-19 15:00:00,
2013-03-19 10:05:00,35.1,14.8,30.15,SW,222,0.0,2.0,43,0.00,OVC,,0.00,WeatherDisplay:10.37,2013-03-19 15:05:00,
2013-03-19 10:15:00,35.4,14.6,30.15,SW,222,1.0,4.0,42,0.00,OVC,,0.00,WeatherDisplay:10.37,2013-03-19 15:15:00,
2013-03-19 10:20:00,35.4,15.1,30.16,SW,221,3.0,6.0,43,0.00,OVC,,0.00,WeatherDisplay:10.37,2013-03-19 15:20:00,
2013-03-19 10:25:00,35.2,16.0,30.15,SW,215,3.0,6.0,45,0.00,OVC,,0.00,WeatherDisplay:10.37,2013-03-19 15:25:00,
2013-03-19 10:30:00,35.3,18.0,30.15,SSW,209,3.0,7.0,49,0.00,OVC,,0.00,WeatherDisplay:10.37,2013-03-19 15:30:00,
2013-03-19 10:40:00,35.0,17.7,30.16,SSW,208,2.0,5.0,49,0.00,OVC,,0.00,WeatherDisplay:10.37,2013-03-19 15:40:00,
2013-03-19 10:50:00,35.0,17.3,30.17,SSW,208,5.0,6.0,48,0.00,OVC,,0.00,WeatherDisplay:10.37,2013-03-19 15:50:00,
2013-03-19 10:55:00,35.0,17.7,30.17,SSW,207,3.0,7.0,49,0.00,OVC,,0.00,WeatherDisplay:10.37,2013-03-19 15:55:00,
2013-03-19 11:00:00,35.1,17.3,30.17,SSW,206,7.0,10.0,48,0.00,OVC,,0.00,WeatherDisplay:10.37,2013-03-19 16:00:00,
2013-03-19 11:10:00,34.6,19.2,30.17,SSW,205,6.0,9.0,53,0.00,-SN,,0.00,WeatherDisplay:10.37,2013-03-19 16:10:00,
2013-03-19 11:15:00,34.3,19.8,30.18,SSW,212,7.0,10.0,55,0.00,-SN,,0.00,WeatherDisplay:10.37,2013-03-19 16:15:00,
2013-03-19 11:20:00,34.1,21.6,30.18,SSW,212,8.0,12.0,60,0.00,-SN,,0.00,WeatherDisplay:10.37,2013-03-19 16:20:00,
2013-03-19 11:25:00,33.4,22.1,30.18,SW,214,8.0,10.0,63,0.00,-SN,,0.00,WeatherDisplay:10.37,2013-03-19 16:25:00,
2013-03-19 11:30:00,33.0,22.5,30.18,SW,214,6.0,9.0,65,0.00,-SN,,0.00,WeatherDisplay:10.37,2013-03-19 16:30:00,
2013-03-19 11:35:00,33.1,23.6,30.18,SSW,212,6.0,10.0,68,0.00,-SN,,0.00,WeatherDisplay:10.37,2013-03-19 16:35:00,
2013-03-19 11:40:00,33.2,24.1,30.18,SSW,209,7.0,9.0,69,0.00,-SN,,0.00,WeatherDisplay:10.37,2013-03-19 16:40:00,
2013-03-19 11:50:00,32.6,24.9,30.18,SSW,206,7.0,9.0,73,0.00,-SN,,0.00,WeatherDisplay:10.37,2013-03-19 16:50:00,
2013-03-19 12:00:00,32.2,25.5,30.18,SSW,208,6.0,9.0,76,0.00,-SN,,0.00,WeatherDisplay:10.37,2013-03-19 17:00:00,
2013-03-19 12:10:00,32.0,25.9,30.18,SSW,210,7.0,9.0,78,0.00,-SN,,0.00,WeatherDisplay:10.37,2013-03-19 17:10:00,
2013-03-19 12:15:00,31.9,25.8,30.17,SSW,210,8.0,12.0,78,0.00,-SN,,0.00,WeatherDisplay:10.37,2013-03-19 17:15:00,
2013-03-19 12:20:00,31.5,25.4,30.18,SW,215,9.0,12.0,78,0.00,-SN,,0.00,WeatherDisplay:10.37,2013-03-19 17:20:00,
2013-03-19 12:30:00,31.6,25.9,30.19,SSW,212,7.0,10.0,79,0.00,-SN,,0.00,WeatherDisplay:10.37,2013-03-19 17:30:00,
2013-03-19 12:40:00,31.1,25.3,30.19,SSW,209,6.0,9.0,79,0.00,-SN,,0.00,WeatherDisplay:10.37,2013-03-19 17:40:00,
2013-03-19 12:50:00,30.6,25.8,30.18,SSW,211,6.0,8.0,82,0.00,-SN,,0.00,WeatherDisplay:10.37,2013-03-19 17:50:00,
2013-03-19 12:55:00,30.8,26.3,30.19,SSW,208,5.0,7.0,83,0.00,-SN,,0.00,WeatherDisplay:10.37,2013-03-19 17:55:00,
2013-03-19 13:00:00,30.9,26.6,30.20,SSW,213,2.0,6.0,84,0.00,-SN,,0.00,WeatherDisplay:10.37,2013-03-19 18:00:00,
2013-03-19 13:10:00,31.1,27.1,30.20,SW,227,1.0,3.0,85,0.00,OVC,,0.00,WeatherDisplay:10.37,2013-03-19 18:10:00,
2013-03-19 13:15:00,31.2,27.5,30.20,SW,227,1.0,3.0,86,0.00,OVC,,0.00,WeatherDisplay:10.37,2013-03-19 18:15:00,
2013-03-19 13:20:00,31.2,27.5,30.20,SW,227,1.0,3.0,86,0.00,OVC,,0.00,WeatherDisplay:10.37,2013-03-19 18:20:00,
2013-03-19 13:25:00,31.2,27.5,30.20,SW,227,2.0,4.0,86,0.00,OVC,,0.00,WeatherDisplay:10.37,2013-03-19 18:25:00,
2013-03-19 13:30:00,31.1,27.4,30.19,SW,227,3.0,4.0,86,0.01,RA,,0.01,WeatherDisplay:10.37,2013-03-19 18:30:00,
2013-03-19 13:40:00,31.2,27.8,30.20,SW,227,1.0,3.0,87,0.00,RA,,0.01,WeatherDisplay:10.37,2013-03-19 18:40:00,
2013-03-19 13:45:00,31.4,28.0,30.19,SW,227,1.0,3.0,87,0.00,RA,,0.01,WeatherDisplay:10.37,2013-03-19 18:45:00,
2013-03-19 13:50:00,31.4,28.0,30.19,SW,227,2.0,4.0,87,0.00,OVC,,0.01,WeatherDisplay:10.37,2013-03-19 18:50:00,
2013-03-19 13:55:00,31.6,28.5,30.19,SW,221,3.0,5.0,88,0.00,OVC,,0.01,WeatherDisplay:10.37,2013-03-19 18:55:00,
2013-03-19 14:00:00,31.8,28.7,30.19,SSW,212,5.0,8.0,88,0.00,OVC,,0.01,WeatherDisplay:10.37,2013-03-19 19:00:00,
2013-03-19 14:05:00,32.3,29.1,30.19,SSW,213,6.0,7.0,88,0.00,OVC,,0.01,WeatherDisplay:10.37,2013-03-19 19:05:00,
2013-03-19 14:10:00,32.4,29.3,30.19,SSW,211,6.0,7.0,88,0.00,OVC,,0.01,WeatherDisplay:10.37,2013-03-19 19:10:00,
2013-03-19 14:20:00,32.7,29.5,30.18,SW,218,5.0,8.0,88,0.00,OVC,,0.01,WeatherDisplay:10.37,2013-03-19 19:20:00,
2013-03-19 14:30:00,32.8,29.3,30.18,SSW,211,5.0,10.0,87,0.00,OVC,,0.01,WeatherDisplay:10.37,2013-03-19 19:30:00,
2013-03-19 14:35:00,32.7,29.5,30.18,SSW,213,6.0,8.0,88,0.00,OVC,,0.01,WeatherDisplay:10.37,2013-03-19 19:35:00,
2013-03-19 14:40:00,33.0,29.8,30.18,SW,219,6.0,9.0,88,0.00,OVC,,0.01,WeatherDisplay:10.37,2013-03-19 19:40:00,
2013-03-19 14:50:00,33.3,30.1,30.18,SSW,212,5.0,9.0,88,0.00,OVC,,0.01,WeatherDisplay:10.37,2013-03-19 19:50:00,
2013-03-19 15:00:00,33.6,30.1,30.18,SW,219,5.0,7.0,87,0.00,OVC,,0.01,WeatherDisplay:10.37,2013-03-19 20:00:00,
2013-03-19 15:10:00,33.7,30.2,30.18,WSW,239,3.0,5.0,87,0.00,-SN,,0.01,WeatherDisplay:10.37,2013-03-19 20:10:00,
2013-03-19 15:15:00,33.8,30.3,30.18,SW,225,1.0,5.0,87,0.00,-SN,,0.01,WeatherDisplay:10.37,2013-03-19 20:15:00,
2013-03-19 15:20:00,33.9,30.4,30.18,WSW,239,1.0,5.0,87,0.00,-SN,,0.01,WeatherDisplay:10.37,2013-03-19 20:20:00,
2013-03-19 15:25:00,33.8,30.3,30.18,West,265,2.0,5.0,87,0.01,-SN,,0.02,WeatherDisplay:10.37,2013-03-19 20:25:00,
2013-03-19 15:30:00,33.8,30.3,30.18,West,261,2.0,4.0,87,0.00,-SN,,0.02,WeatherDisplay:10.37,2013-03-19 20:30:00,
2013-03-19 15:40:00,33.8,30.3,30.18,WSW,244,2.0,4.0,87,0.00,-SN,,0.02,WeatherDisplay:10.37,2013-03-19 20:40:00,
2013-03-19 15:50:00,33.8,30.3,30.18,SW,219,3.0,5.0,87,0.00,-SN,,0.02,WeatherDisplay:10.37,2013-03-19 20:50:00,
2013-03-19 15:55:00,33.8,30.4,30.18,SW,216,5.0,6.0,87,0.00,-SN,,0.02,WeatherDisplay:10.37,2013-03-19 20:55:00,
2013-03-19 16:00:00,33.9,30.7,30.18,SW,217,5.0,7.0,88,0.00,-SN,,0.02,WeatherDisplay:10.37,2013-03-19 21:00:00,
2013-03-19 16:05:00,33.7,30.2,30.18,SW,217,6.0,7.0,87,0.00,OVC,,0.02,WeatherDisplay:10.37,2013-03-19 21:05:00,
2013-03-19 16:10:00,33.9,30.7,30.18,SW,215,5.0,8.0,88,0.00,OVC,,0.02,WeatherDisplay:10.37,2013-03-19 21:10:00,
2013-03-19 16:15:00,33.9,30.7,30.18,SW,216,6.0,8.0,88,0.00,OVC,,0.02,WeatherDisplay:10.37,2013-03-19 21:15:00,
2013-03-19 16:20:00,33.9,30.7,30.18,SW,214,5.0,6.0,88,0.00,OVC,,0.02,WeatherDisplay:10.37,2013-03-19 21:20:00,
2013-03-19 16:25:00,34.3,31.4,30.17,SSW,209,5.0,7.0,89,0.00,OVC,,0.02,WeatherDisplay:10.37,2013-03-19 21:25:00,
2013-03-19 16:30:00,34.3,31.1,30.17,SSW,212,5.0,9.0,88,0.00,OVC,,0.02,WeatherDisplay:10.37,2013-03-19 21:30:00,
2013-03-19 16:40:00,34.8,31.9,30.17,SSW,205,5.0,7.0,89,0.00,OVC,,0.02,WeatherDisplay:10.37,2013-03-19 21:40:00,
2013-03-19 16:45:00,34.8,31.9,30.17,SSW,205,5.0,7.0,89,0.00,OVC,,0.02,WeatherDisplay:10.37,2013-03-19 21:45:00,
2013-03-19 16:50:00,34.7,31.8,30.17,SSW,207,3.0,6.0,89,0.00,OVC,,0.02,WeatherDisplay:10.37,2013-03-19 21:50:00,
2013-03-19 17:00:00,35.0,32.1,30.16,SSW,211,3.0,7.0,89,0.00,OVC,,0.02,WeatherDisplay:10.37,2013-03-19 22:00:00,
2013-03-19 17:10:00,35.0,32.1,30.16,SW,214,5.0,6.0,89,0.00,OVC,,0.02,WeatherDisplay:10.37,2013-03-19 22:10:00,
2013-03-19 17:15:00,35.1,32.2,30.16,SSW,209,5.0,8.0,89,0.00,OVC,,0.02,WeatherDisplay:10.37,2013-03-19 22:15:00,
2013-03-19 17:20:00,35.4,32.5,30.16,SSW,207,3.0,7.0,89,0.00,OVC,,0.02,WeatherDisplay:10.37,2013-03-19 22:20:00,
2013-03-19 17:25:00,35.6,32.7,30.16,SW,221,5.0,8.0,89,0.00,OVC,,0.02,WeatherDisplay:10.37,2013-03-19 22:25:00,
2013-03-19 17:30:00,35.5,32.6,30.16,SW,221,6.0,7.0,89,0.00,OVC,,0.02,WeatherDisplay:10.37,2013-03-19 22:30:00,
2013-03-19 17:40:00,35.8,33.2,30.16,SSW,209,2.0,4.0,90,0.00,OVC,,0.02,WeatherDisplay:10.37,2013-03-19 22:40:00,
2013-03-19 17:45:00,36.0,33.4,30.17,SSW,209,1.0,4.0,90,0.00,OVC,,0.02,WeatherDisplay:10.37,2013-03-19 22:45:00,
2013-03-19 17:55:00,36.4,33.5,30.16,SW,218,3.0,4.0,89,0.00,OVC,,0.02,WeatherDisplay:10.37,2013-03-19 22:55:00,
2013-03-19 18:00:00,36.6,33.7,30.16,SW,226,2.0,5.0,89,0.00,OVC,,0.02,WeatherDisplay:10.37,2013-03-19 23:00:00,
2013-03-19 18:10:00,37.7,34.7,30.16,SW,231,3.0,5.0,89,0.00,OVC,,0.02,WeatherDisplay:10.37,2013-03-19 23:10:00,
2013-03-19 18:20:00,38.0,34.5,30.16,SW,228,2.0,7.0,87,0.00,OVC,,0.02,WeatherDisplay:10.37,2013-03-19 23:20:00,
2013-03-19 18:30:00,38.1,34.3,30.16,SW,236,2.0,4.0,86,0.00,OVC,,0.02,WeatherDisplay:10.37,2013-03-19 23:30:00,
2013-03-19 18:40:00,37.9,34.1,30.16,WSW,257,2.0,4.0,86,0.00,OVC,,0.02,WeatherDisplay:10.37,2013-03-19 23:40:00,
2013-03-19 18:45:00,37.9,34.0,30.17,West,259,2.0,4.0,86,0.00,OVC,,0.02,WeatherDisplay:10.37,2013-03-19 23:45:00,
2013-03-19 18:55:00,37.4,33.3,30.16,West,261,0.0,3.0,85,0.00,OVC,,0.02,WeatherDisplay:10.37,2013-03-19 23:55:00,
2013-03-19 19:00:00,37.1,33.3,30.16,West,261,0.0,1.0,86,0.00,OVC,,0.02,WeatherDisplay:10.37,2013-03-20 00:00:00,
2013-03-19 19:10:00,36.8,33.0,30.17,West,261,0.0,0.0,86,0.00,CLR,,0.02,WeatherDisplay:10.37,2013-03-20 00:10:00,
2013-03-19 19:15:00,36.8,33.0,30.17,West,261,0.0,0.0,86,0.00,CLR,,0.02,WeatherDisplay:10.37,2013-03-20 00:15:00,
2013-03-19 19:20:00,36.7,32.9,30.17,West,261,1.0,2.0,86,0.00,CLR,,0.02,WeatherDisplay:10.37,2013-03-20 00:20:00,
2013-03-19 19:25:00,36.6,32.8,30.17,West,261,1.0,2.0,86,0.00,CLR,,0.02,WeatherDisplay:10.37,2013-03-20 00:25:00,
2013-03-19 19:30:00,36.6,32.8,30.17,West,261,0.0,2.0,86,0.00,CLR,,0.02,WeatherDisplay:10.37,2013-03-20 00:30:00,
2013-03-19 19:40:00,36.6,32.8,30.17,West,261,2.0,3.0,86,0.00,CLR,,0.02,WeatherDisplay:10.37,2013-03-20 00:40:00,
2013-03-19 19:45:00,36.2,32.4,30.17,West,261,2.0,4.0,86,0.00,CLR,,0.02,WeatherDisplay:10.37,2013-03-20 00:45:00,
2013-03-19 19:50:00,35.9,32.4,30.17,West,261,2.0,5.0,87,0.00,CLR,,0.02,WeatherDisplay:10.37,2013-03-20 00:50:00,
2013-03-19 19:55:00,36.0,32.8,30.17,West,261,1.0,4.0,88,0.00,CLR,,0.02,WeatherDisplay:10.37,2013-03-20 00:55:00,
2013-03-19 20:00:00,36.0,32.8,30.17,West,261,2.0,4.0,88,0.00,CLR,,0.02,WeatherDisplay:10.37,2013-03-20 01:00:00,
2013-03-19 20:10:00,36.1,32.9,30.18,West,261,2.0,3.0,88,0.00,CLR,,0.02,WeatherDisplay:10.37,2013-03-20 01:10:00,
2013-03-19 20:15:00,36.0,32.8,30.18,West,261,1.0,3.0,88,0.00,CLR,,0.02,WeatherDisplay:10.37,2013-03-20 01:15:00,
2013-03-19 20:20:00,35.7,32.2,30.18,West,261,1.0,3.0,87,0.00,CLR,,0.02,WeatherDisplay:10.37,2013-03-20 01:20:00,
2013-03-19 20:25:00,35.6,32.4,30.18,West,261,1.0,2.0,88,0.00,CLR,,0.02,WeatherDisplay:10.37,2013-03-20 01:25:00,
2013-03-19 20:30:00,35.5,32.3,30.18,West,261,1.0,3.0,88,0.00,CLR,,0.02,WeatherDisplay:10.37,2013-03-20 01:30:00,
2013-03-19 20:35:00,35.4,32.2,30.18,West,261,1.0,2.0,88,0.00,CLR,,0.02,WeatherDisplay:10.37,2013-03-20 01:35:00,
2013-03-19 20:40:00,35.1,31.9,30.18,West,261,2.0,3.0,88,0.00,CLR,,0.02,WeatherDisplay:10.37,2013-03-20 01:40:00,
2013-03-19 20:50:00,34.5,31.3,30.19,West,261,2.0,4.0,88,0.00,CLR,,0.02,WeatherDisplay:10.37,2013-03-20 01:50:00,
2013-03-19 21:00:00,34.3,31.4,30.19,West,261,0.0,3.0,89,0.00,CLR,,0.02,WeatherDisplay:10.37,2013-03-20 02:00:00,
2013-03-19 21:10:00,34.1,31.2,30.20,West,261,1.0,3.0,89,0.00,CLR,,0.02,WeatherDisplay:10.37,2013-03-20 02:10:00,
2013-03-19 21:15:00,34.3,31.6,30.20,West,261,1.0,3.0,90,0.00,CLR,,0.02,WeatherDisplay:10.37,2013-03-20 02:15:00,
2013-03-19 21:20:00,34.5,31.9,30.20,West,261,2.0,3.0,90,0.00,CLR,,0.02,WeatherDisplay:10.37,2013-03-20 02:20:00,
2013-03-19 21:25:00,34.7,32.1,30.20,West,261,1.0,3.0,90,0.00,CLR,,0.02,WeatherDisplay:10.37,2013-03-20 02:25:00,
2013-03-19 21:30:00,34.7,32.1,30.20,West,261,3.0,5.0,90,0.00,CLR,,0.02,WeatherDisplay:10.37,2013-03-20 02:30:00,
2013-03-19 21:35:00,34.5,31.6,30.20,West,261,3.0,5.0,89,0.00,CLR,,0.02,WeatherDisplay:10.37,2013-03-20 02:35:00,
2013-03-19 21:40:00,34.1,31.5,30.20,SW,236,3.0,5.0,90,0.00,CLR,,0.02,WeatherDisplay:10.37,2013-03-20 02:40:00,
2013-03-19 21:45:00,33.5,30.6,30.20,SW,217,3.0,5.0,89,0.00,CLR,,0.02,WeatherDisplay:10.37,2013-03-20 02:45:00,
2013-03-19 21:50:00,33.0,30.1,30.20,SW,217,3.0,5.0,89,0.00,CLR,,0.02,WeatherDisplay:10.37,2013-03-20 02:50:00,
2013-03-19 22:00:00,33.0,30.4,30.20,SW,217,3.0,4.0,90,0.00,CLR,,0.02,WeatherDisplay:10.37,2013-03-20 03:00:00,
2013-03-19 22:10:00,33.3,31.0,30.20,SW,215,5.0,6.0,91,0.00,SCT,,0.02,WeatherDisplay:10.37,2013-03-20 03:10:00,
2013-03-19 22:15:00,33.6,31.3,30.20,SW,216,6.0,7.0,91,0.00,SCT,,0.02,WeatherDisplay:10.37,2013-03-20 03:15:00,
2013-03-19 22:20:00,33.6,31.3,30.20,SW,219,6.0,7.0,91,0.00,SCT,,0.02,WeatherDisplay:10.37,2013-03-20 03:20:00,
2013-03-19 22:30:00,33.5,30.9,30.20,SW,219,5.0,5.0,90,0.00,SCT,,0.02,WeatherDisplay:10.37,2013-03-20 03:30:00,
2013-03-19 22:40:00,33.8,31.5,30.21,SW,219,5.0,6.0,91,0.00,SCT,,0.02,WeatherDisplay:10.37,2013-03-20 03:40:00,
2013-03-19 22:45:00,33.9,31.6,30.21,SW,219,2.0,5.0,91,0.00,SCT,,0.02,WeatherDisplay:10.37,2013-03-20 03:45:00,
2013-03-19 22:50:00,33.6,31.0,30.21,SW,219,2.0,4.0,90,0.00,SCT,,0.02,WeatherDisplay:10.37,2013-03-20 03:50:00,
2013-03-19 22:55:00,33.3,31.0,30.21,SW,219,2.0,4.0,91,0.00,SCT,,0.02,WeatherDisplay:10.37,2013-03-20 03:55:00,
2013-03-19 23:00:00,32.9,30.3,30.21,SW,219,3.0,6.0,90,0.00,SCT,,0.02,WeatherDisplay:10.37,2013-03-20 04:00:00,
2013-03-19 23:05:00,32.5,29.9,30.20,SW,219,3.0,4.0,90,0.00,SCT,,0.02,WeatherDisplay:10.37,2013-03-20 04:05:00,
2013-03-19 23:10:00,32.4,30.1,30.20,SW,219,2.0,4.0,91,0.00,SCT,,0.02,WeatherDisplay:10.37,2013-03-20 04:10:00,
2013-03-19 23:20:00,32.5,30.2,30.20,SW,219,2.0,4.0,91,0.00,SCT,,0.02,WeatherDisplay:10.37,2013-03-20 04:20:00,
2013-03-19 23:25:00,32.4,30.1,30.20,SW,219,1.0,4.0,91,0.00,SCT,,0.02,WeatherDisplay:10.37,2013-03-20 04:25:00,
2013-03-19 23:30:00,32.4,30.1,30.20,SW,219,2.0,3.0,91,0.00,SCT,,0.02,WeatherDisplay:10.37,2013-03-20 04:30:00,
2013-03-19 23:40:00,32.7,30.4,30.20,SW,219,2.0,4.0,91,0.00,SCT,,0.02,WeatherDisplay:10.37,2013-03-20 04:40:00,
2013-03-19 23:50:00,32.9,30.5,30.21,SW,219,5.0,7.0,91,0.00,SCT,,0.02,WeatherDisplay:10.37,2013-03-20 04:50:00,
2013-03-19 23:55:00,32.4,30.0,30.21,SW,219,3.0,5.0,91,0.00,SCT,,0.02,WeatherDisplay:10.37,2013-03-20 04:55:00,